Location: Unspecified
(0.0000°N, 0.0000°E)
Time: 23:09:05
(UTC+00:00)

Vanguard 2 - Pass Details

Date: 05 October 2020
Orbit: 554 x 2937 km, 32.9° (Epoch: 28 October)

Event Time Altitude Azimuth Distance (km) Brightness Sun altitude
Rises 23:39:45 0° 240° (WSW) 6,743 12.4 -84.7°
Enters shadow 23:43:13 - 241° (WSW) 5,991 12.0 -85.0°
Reaches altitude 10° 23:44:14 10° 242° (WSW) 5,767 - -85.1°
Maximum altitude 00:02:03 71° 322° (NW) 2,707 - -84.1°
Drops below altitude 10° 00:15:02 10° 45° (NE) 4,349 - -81.8°
Sets 00:17:56 0° 48° (NE) 5,070 - -81.2°
